Home > Weather > Herrenberg > Past weeks

Flag for Germany Weather for the Past 2 Weeks in Herrenberg, Baden-Württemberg, Germany

Now
61 °F

Broken clouds.


Feels Like: 61 °F
Forecast: 42 / 53 °F
Wind: 12 mph from Northeast

Location: Stuttgart-Echterdingen

Current Time: Apr 30, 2016 at 5:55:27 PM

Latest Report: Apr 30, 2016 at 5:20 PM


Visibility: N/A

Pressure: 29.89 "Hg

Humidity: 45%

Dew Point: 39 °F

Location of HerrenbergLocation

Historic Weather in Herrenberg — Graph

°F

Herrenberg Temperature Yesterday

Maximum temperature yesterday: 59 °F (at 5:20 PM)
Minimum temperature yesterday: 30 °F (at 3:50 AM)
Average temperature yesterday: 45 °F

High & Low Weather Summary for the Past Weeks

 TemperatureHumidityPressure
High68 °F (Apr 21, 3:50 PM)100% (Apr 16, 4:20 AM)30.39 "Hg (Apr 16, 4:20 AM)
Low30 °F (Apr 29, 3:50 AM)24% (Apr 21, 6:20 PM)29.56 "Hg (Apr 26, 5:50 AM)
Average46 °F73%29.96 "Hg
* Reported Apr 15 4:20 PM — Apr 30 4:20 PM, Herrenberg, Weather by CustomWeather, © 2016

Note: Actual official high and low records may vary slightly from our data, if they occured in-between our weather recording intervals... More about our weather records

Advertising

Herrenberg Weather History for the Previous 24 Hours

Scroll right to see more
 ConditionsComfort  
Time TempWeatherWind HumidityBarometerVisibility
4:20 PM
Sat, Apr 30
61 °FPartly sunny.10 mph39%29.92 "HgN/A
3:50 PM61 °FPassing clouds.9 mph39%29.92 "HgN/A
3:20 PM61 °FPassing clouds.10 mph39%29.92 "HgN/A
2:50 PM61 °FPassing clouds.8 mph42%29.95 "HgN/A
2:20 PM61 °FPassing clouds.8 mph42%29.95 "HgN/A
1:50 PM59 °FPassing clouds.6 mph45%29.95 "HgN/A
1:20 PM59 °FPartly sunny.3 mph45%29.98 "HgN/A
12:50 PM57 °FBroken clouds.3 mph44%29.98 "HgN/A
12:20 PM55 °FBroken clouds.6 mph47%29.98 "HgN/A
11:20 AM54 °FBroken clouds.2 mph58%30.01 "HgN/A
10:20 AM50 °FBroken clouds.2 mph67%30.01 "HgN/A
9:50 AM46 °FSunny.2 mph76%30.01 "Hg10 mi
9:20 AM43 °FSunny.1 mph81%30.04 "Hg10 mi
8:50 AM41 °FPassing clouds.3 mph81%30.04 "HgN/A
8:20 AM39 °FSunny.1 mph87%30.04 "Hg10 mi
7:50 AM37 °FSunny.2 mph93%30.04 "Hg10 mi
7:20 AM36 °FSunny.1 mph93%30.01 "Hg10 mi
6:50 AM34 °FClear.2 mph93%30.01 "Hg10 mi
6:20 AM34 °FClear.1 mph93%30.01 "Hg10 mi
5:50 AM34 °FClear.1 mph93%30.01 "Hg10 mi
5:20 AM36 °FClear.1 mph87%30.01 "Hg10 mi
4:20 AM37 °FClear.No wind81%30.01 "Hg10 mi
3:50 AM37 °FClear.No wind81%30.01 "Hg10 mi
3:20 AM37 °FClear.2 mph81%30.01 "Hg10 mi
2:50 AM37 °FClear.6 mph87%30.01 "Hg10 mi
1:50 AM39 °FClear.5 mph75%30.01 "Hg10 mi
1:20 AM39 °FClear.2 mph81%30.01 "Hg10 mi
12:50 AM41 °FClear.3 mph76%30.01 "Hg10 mi
12:20 AM41 °FClear.6 mph76%30.04 "Hg10 mi
11:50 PM
Fri, Apr 29
41 °FClear.3 mph76%30.04 "Hg10 mi
11:20 PM45 °FClear.2 mph66%30.04 "Hg10 mi
10:50 PM46 °FClear.1 mph62%30.04 "Hg10 mi
10:20 PM48 °FClear.1 mph58%30.04 "Hg10 mi
9:50 PM50 °FPassing clouds.3 mph54%30.04 "HgN/A
9:20 PM52 °FPassing clouds.6 mph50%30.04 "HgN/A
8:50 PM52 °FPassing clouds.5 mph50%30.01 "HgN/A
8:20 PM54 °FSunny.7 mph47%30.01 "Hg10 mi
7:50 PM54 °FPassing clouds.7 mph47%30.01 "HgN/A
7:20 PM55 °FPassing clouds.5 mph44%30.01 "HgN/A
6:50 PM57 °FPassing clouds.7 mph41%30.01 "HgN/A
6:20 PM59 °FPassing clouds.5 mph36%30.01 "HgN/A
5:50 PM59 °FPassing clouds.3 mph34%30.01 "HgN/A
5:20 PM59 °FPassing clouds.3 mph36%30.01 "HgN/A
Weather by CustomWeather, © 2016

See weather overviewHow to use our weather pages